This is the latest recevied weather packets stored in our database for station/object N7IGG. If no packets are shown the sender has not sent any weather packets the latest 10 day(s).
| Time | Temp. | Humidity | Pressure | Rain* | Wind** | Luminosity | Snow |
|---|---|---|---|---|---|---|---|
| 1777745196 | 15° C | 84% | 1016.8 hPa | 0 mm | - | 165 W/m² | - |
| 1777744893 | 15° C | 86% | 1016.7 hPa | 0 mm | - | 77 W/m² | - |
| 1777744592 | 15° C | 87% | 1016.8 hPa | 0 mm | - | 75 W/m² | - |
| 1777744293 | 14.44° C | 89% | 1016.9 hPa | 0 mm | - | 72 W/m² | - |
| 1777743991 | 14.44° C | 90% | 1016.9 hPa | 0 mm | - | 72 W/m² | - |
| 1777743687 | 14.44° C | 91% | 1017.1 hPa | 0 mm | - | 69 W/m² | - |
| 1777743384 | 13.89° C | 92% | 1017.2 hPa | 0 mm | - | 78 W/m² | - |
| 1777743082 | 13.33° C | 93% | 1017 hPa | 0 mm | - | 79 W/m² | - |
| 1777742779 | 13.33° C | 94% | 1017 hPa | 0 mm | - | 82 W/m² | - |
| 1777742476 | 13.33° C | 95% | 1017.2 hPa | 0 mm | - | 71 W/m² | - |
| 1777742171 | 12.78° C | 95% | 1017.2 hPa | 0 mm | - | 73 W/m² | - |
| 1777741868 | 12.22° C | 96% | 1017.2 hPa | 0 mm | - | 94 W/m² | - |
| 1777741565 | 12.22° C | 96% | 1017.3 hPa | 0 mm | - | 84 W/m² | - |
| 1777741262 | 11.67° C | 96% | 1017.5 hPa | 0 mm | - | 82 W/m² | - |
| 1777740959 | 11.67° C | 96% | 1017.4 hPa | 0 mm | - | 79 W/m² | - |
| 1777740656 | 11.11° C | 96% | 1017.5 hPa | 0 mm | - | 97 W/m² | - |
| 1777740352 | 11.11° C | 96% | 1017.4 hPa | 0 mm | - | 73 W/m² | - |
| 1777740049 | 11.11° C | 96% | 1017.6 hPa | 0 mm | - | 71 W/m² | - |
| 1777739745 | 10.56° C | 96% | 1017.5 hPa | 0 mm | - | 62 W/m² | - |
| 1777739442 | 10.56° C | 96% | 1017.6 hPa | 0 mm | - | 59 W/m² | - |
| 1777739139 | 10.56° C | 96% | 1017.7 hPa | 0 mm | - | 59 W/m² | - |
| 1777738836 | 10.56° C | 95% | 1017.6 hPa | 0 mm | - | 62 W/m² | - |
| 1777738532 | 10.56° C | 95% | 1017.4 hPa | 0 mm | - | 62 W/m² | - |
| 1777738230 | 10.56° C | 95% | 1017.6 hPa | 0 mm | - | 62 W/m² | - |
| 1777737928 | 10.56° C | 95% | 1017.5 hPa | 0 mm | - | 64 W/m² | - |
* Rain latest hour (hover to see other rain measurements)
** Current wind speed in m/s (hover to see current wind gust speed)